Hourly Data Report for October 04, 2017

All times are specified in Local Standard Time (LST). Add 1 hour to adjust for Daylight Saving Time where and when it is observed.

SIOUX LOOKOUT A
ONTARIO

50°06'51.000" N
91°54'29.000" W
383.10 m
6037776
71842
YXL

Download Data

Hourly Data (October 2017)
Hourly Data Report for October 4, 2017
Temp Definition
°C
Dew Point Temp Definition
°C
Rel Hum Definition
%
Wind Dir Definition
10's deg

Wind Spd Definition
km/h
Visibility Definition
km
Stn Press Definition
kPa
Hmdx Definition


Wind Chill Definition


Weather Definition


TIME
00:00 Legend Double Dagger 5.5 5.3 98 21 5 24.1 97.46     Mostly Cloudy
01:00 Legend Double Dagger 7.6 7.2 97 23 7 24.1 97.44     LegendNANA
02:00 Legend Double Dagger 7.1 6.9 98 20 4 24.1 97.41     LegendNANA
03:00 Legend Double Dagger 7.1 6.6 97 17 9 24.1 97.34     Mostly Cloudy
04:00 Legend Double Dagger 7.8 7.3 97 19 8 24.1 97.31     LegendNANA
05:00 Legend Double Dagger 7.6 7.2 98 18 6 24.1 97.30     Rain Showers
06:00 Legend Double Dagger 7.9 7.4 97 23 10 24.1 97.28     Mostly Cloudy
07:00 Legend Double Dagger 8.1 7.5 96 25 6 24.1 97.30     LegendNANA
08:00 Legend Double Dagger 9.3 7.6 89 27 13 24.1 97.31     LegendNANA
09:00 Legend Double Dagger 10.3 6.0 74 30 19 24.1 97.33     Mainly Clear
10:00 Legend Double Dagger 11.1 5.4 68 27 21 24.1 97.27     LegendNANA
11:00 Legend Double Dagger 12.5 5.0 60 24 22 24.1 97.26     LegendNANA
12:00 Legend Double Dagger 11.2 4.8 64 28 16 24.1 97.24     Mostly Cloudy
13:00 Legend Double Dagger 10.4 4.0 64 27 21 24.1 97.22     LegendNANA
14:00 Legend Double Dagger 10.2 4.7 69 25 18 24.1 97.17     LegendNANA
15:00 Legend Double Dagger 9.7 5.4 75 24 21 24.1 97.16     Cloudy
16:00 Legend Double Dagger 9.5 5.4 75 26 18 24.1 97.13     LegendNANA
17:00 Legend Double Dagger 10.1 5.8 74 27 13 24.1 97.12     LegendNANA
18:00 Legend Double Dagger 9.2 5.3 77 27 9 24.1 97.14     Mostly Cloudy
19:00 Legend Double Dagger 9.4 5.2 75 26 13 24.1 97.15     LegendNANA
20:00 Legend Double Dagger 9.2 5.9 80 24 14 24.1 97.14     LegendNANA
21:00 Legend Double Dagger 8.5 5.9 84 27 11 24.1 97.12     Mainly Clear
22:00 Legend Double Dagger 7.9 5.7 86 28 9 24.1 97.11     LegendNANA
23:00 Legend Double Dagger 7.2 5.5 89 26 9 24.1 97.09     LegendNANA

Notes on Data Quality.

Legend

  • E = Estimated
  • M = Missing
  • NA = Not Available
  • ‡ = Partner data that is not subject to review by the National Climate Archives
Date modified: